Maui Island Weather Center

Moon Phase Calendar



Online Cameras

 


      

Current Conditions in Pukalani
8/16/2022 9:20:26 AM

74°F
Feels Like 74
Clear
Humidity
61%
Pressure
29.91"
Wind
3.4 mph (WNW)
Dew Point
60°F
UV Index
4/10 (Moderate)
Visibility
6 mi

Hourly Forecast

Date & Time Tue, Aug 16
9:00 AM
Tue, Aug 16
10:00 AM
Tue, Aug 16
11:00 AM
Tue, Aug 16
12:00 PM
Tue, Aug 16
1:00 PM
Tue, Aug 16
2:00 PM
Tue, Aug 16
3:00 PM
Tue, Aug 16
4:00 PM
Tue, Aug 16
5:00 PM
Tue, Aug 16
6:00 PM
Tue, Aug 16
7:00 PM
Tue, Aug 16
8:00 PM
Tue, Aug 16
9:00 PM
Tue, Aug 16
10:00 PM
Tue, Aug 16
11:00 PM
Wed, Aug 17
12:00 AM
Wed, Aug 17
1:00 AM
Wed, Aug 17
2:00 AM
Wed, Aug 17
3:00 AM
Wed, Aug 17
4:00 AM
Wed, Aug 17
5:00 AM
Wed, Aug 17
6:00 AM
Wed, Aug 17
7:00 AM
Wed, Aug 17
8:00 AM
Wed, Aug 17
9:00 AM
Wed, Aug 17
10:00 AM
Wed, Aug 17
11:00 AM
Wed, Aug 17
12:00 PM
Wed, Aug 17
1:00 PM
Wed, Aug 17
2:00 PM
Wed, Aug 17
3:00 PM
Wed, Aug 17
4:00 PM
Wed, Aug 17
5:00 PM
Wed, Aug 17
6:00 PM
Wed, Aug 17
7:00 PM
Wed, Aug 17
8:00 PM
Wed, Aug 17
9:00 PM
Wed, Aug 17
10:00 PM
Wed, Aug 17
11:00 PM
Thu, Aug 18
12:00 AM
Thu, Aug 18
1:00 AM
Thu, Aug 18
2:00 AM
Thu, Aug 18
3:00 AM
Thu, Aug 18
4:00 AM
Thu, Aug 18
5:00 AM
Thu, Aug 18
6:00 AM
Thu, Aug 18
7:00 AM
Thu, Aug 18
8:00 AM
Condition
Clear

Clear

Clouds

Clouds

Clouds

Rain

Rain

Rain

Rain

Rain

Clouds

Rain

Rain

Rain

Clouds

Clouds

Clouds

Clouds

Clouds

Clouds

Clouds

Clouds

Clouds

Clouds

Clouds

Clouds

Clouds

Clouds

Rain

Rain

Rain

Rain

Rain

Rain

Rain

Rain

Rain

Rain

Clouds

Clouds

Rain

Clouds

Clouds

Clouds

Clouds

Clouds

Clouds

Clouds
Temperature 74°F73°F74°F74°F73°F71°F69°F69°F69°F68°F68°F67°F67°F66°F66°F66°F66°F65°F65°F65°F65°F64°F66°F68°F70°F72°F73°F73°F72°F72°F71°F71°F70°F69°F68°F68°F67°F67°F66°F66°F66°F66°F65°F66°F65°F65°F66°F68°F
Feels Like 74°F73°F74°F74°F73°F71°F70°F69°F69°F69°F68°F68°F67°F67°F67°F66°F66°F66°F66°F65°F65°F65°F66°F68°F70°F72°F73°F73°F72°F72°F72°F71°F70°F69°F68°F68°F68°F67°F67°F67°F66°F66°F66°F66°F66°F65°F66°F68°F
Cloudiness 0%9%18%30%47%66%100%100%100%98%94%90%70%72%72%70%69%66%60%60%60%61%60%55%11%14%23%33%41%50%91%88%92%94%94%92%88%88%81%77%75%74%71%70%67%63%62%62%
Visibility 6 mi6 mi6 mi6 mi6 mi6 mi6 mi6 mi6 mi6 mi6 mi6 mi5 mi6 mi6 mi6 mi6 mi6 mi6 mi6 mi6 mi6 mi6 mi6 mi6 mi6 mi6 mi6 mi6 mi6 mi6 mi6 mi6 mi6 mi6 mi6 mi6 mi6 mi6 mi6 mi6 mi6 mi6 mi6 mi6 mi6 mi6 mi6 mi
Precipitation 0%0%0%0%0%20%24%24%24%24%4%24%20%24%0%0%0%0%0%0%0%0%0%0%0%0%0%0%20%20%28%28%28%31%35%26%51%54%47%35%34%41%12%12%4%4%4%4%
Humidity 61%61%60%63%66%72%78%79%78%79%82%84%86%87%87%87%87%88%88%88%88%88%84%76%68%65%65%68%70%71%74%76%80%83%85%85%87%86%87%86%86%87%88%88%85%86%84%80%
Dew Point 60°F59°F59°F60°F61°F63°F64°F64°F64°F64°F64°F64°F64°F64°F64°F64°F64°F64°F63°F63°F63°F63°F63°F62°F62°F62°F63°F63°F64°F64°F64°F65°F65°F65°F65°F65°F65°F64°F64°F64°F64°F64°F64°F64°F63°F62°F63°F63°F
Pressure 29.91"29.94"29.97"29.97"29.97"29.97"29.97"29.97"29.97"29.97"30"30.03"30.03"30.06"30.03"30.03"30.03"30"30"30"30"30"30.03"30.03"30.03"30"30"30"29.97"29.97"29.97"29.97"29.97"29.97"30"30"30.03"30.03"30.03"30.03"30.03"30.03"30"30"30.03"30.03"30.06"30.06"
Wind Speed 0.5 mph0.1 mph1 mph2.2 mph2.7 mph2.2 mph2 mph2.1 mph3.2 mph3.3 mph3.1 mph2.9 mph3 mph4.2 mph4 mph3 mph1.8 mph2.7 mph3 mph2.8 mph2.5 mph2.6 mph3.1 mph3.2 mph2.5 mph2 mph2.2 mph3.2 mph3.9 mph5.3 mph6.4 mph6.2 mph5.8 mph6.4 mph6.1 mph6.2 mph5.7 mph4.6 mph4.1 mph4 mph4.1 mph4.7 mph6.1 mph6.3 mph5.9 mph5.8 mph6.9 mph7.1 mph
Wind
Direction
34°
NE
24°
NNE
183°
S
157°
SSE
145°
SE
121°
ESE
89°
E
98°
E
107°
ESE
106°
ESE
111°
ESE
109°
ESE
107°
ESE
110°
ESE
117°
ESE
127°
SE
115°
ESE
106°
ESE
100°
E
96°
E
99°
E
102°
ESE
95°
E
86°
E
89°
E
108°
ESE
126°
SE
88°
E
87°
E
89°
E
82°
E
82°
E
79°
E
76°
ENE
80°
E
91°
E
98°
E
105°
ESE
106°
ESE
105°
ESE
95°
E
91°
E
91°
E
88°
E
87°
E
92°
E
88°
E
85°
E

Daily Forecast

Date High Low Precip. Humidity
Today
Aug 16

Rain
74 °F
64 °F
37%
63%
Wednesday
Aug 17

Rain
73 °F
64 °F
54%
68%
Thursday
Aug 18

Rain
73 °F
65 °F
41%
64%
Friday
Aug 19

Clouds
73 °F
64 °F
10%
62%
Saturday
Aug 20

Rain
73 °F
63 °F
34%
65%
Sunday
Aug 21

Rain
74 °F
62 °F
38%
52%
Monday
Aug 22

Rain
72 °F
62 °F
34%
66%
Tuesday
Aug 23

Rain
72 °F
63 °F
69%
62%
Wednesday
Aug 24

Rain
69 °F
64 °F
74%
76%
Thursday
Aug 25

Rain
68 °F
64 °F
31%
80%
Friday
Aug 26

Rain
71 °F
63 °F
20%
67%
Saturday
Aug 27

Rain
71 °F
64 °F
32%
69%
Sunday
Aug 28

Clouds
71 °F
63 °F
3%
68%
Monday
Aug 29

Rain
71 °F
63 °F
35%
68%
Tuesday
Aug 30

Rain
70 °F
62 °F
34%
76%
Wednesday
Aug 31

Rain
70 °F
64 °F
36%
74%

Temperature 8-14 Day Outlook



Precipitation 8-14 Day Outlook




Quick Links
Maui Island News
Maui Island Photos
Maui Island Videos




About Us
Contact Us
Site Map
Search Site
Advertise With Us
   
Maui.USCoast.info
THE MAUI ISLAND WEBSITE

Copyright 2022, Coastal Town
Privacy    |    Legal